Tracking 25709 objects as of 23-May-2022
HD Live streaming from Space Station
objects crossing your sky now

AEROCUBE 2

Track AEROCUBE 2 now!
10-day predictions
AEROCUBE 2 is classified as:


NORAD ID: 31133
Int'l Code: 2007-012R
Perigee: 645.7 km
Apogee: 756.9 km
Inclination: 98.2 °
Period: 98.7 minutes
Semi major axis: 7072 km
RCS: 0.0127 m2 (small)
Launch date: April 17, 2007
Source: United States (US)
Launch site: TYURATAM MISSILE AND SPACE COMPLEX (TTMTR)

Uplink (MHz):
Downlink (MHz): 902-928
Beacon (MHz):
Mode: 9600bps GFSK
Call sign:
Status: Inactive

aabbcc
Your satellite tracking list
Your tracking list is empty




NASA's NSSDC Master Catalog

Two Line Element Set (TLE):
1 31133U 07012R   22142.82035784  .00001412  00000-0  29424-3 0  9991
2 31133  98.2498  90.1886 0078586 282.6835  76.5587 14.59696449803043
Source of the keplerian elements: AFSPC